This demonstration page uses our WeatherBlox Daily Observations layout. Learn more.

Left ArrowRight Arrow

36.19886, -115.1175

Hourly Observations for September 17, 2020

Temp ( °F °C ) Dew Point ( °F °C ) Humidity (%) Winds ( mph kmh ) Pressure ( in mb ) Visibility ( mi km ) Precip ( " mm )
12:53 am 00:53 Clear 87 30.6 30 -1.1 13 13 WNW 10 17 29.89 1012 10 16.0934 0 0
1:53 am 01:53 Clear 86 30 29 -1.7 13 13 NNW 12 19 29.89 1012 10 16.0934 0 0
2:53 am 02:53 Clear 85 29.4 31 -0.6 14 14 W 7 11 29.91 1013 10 16.0934 0 0
3:53 am 03:53 Clear 83 28.3 29 -1.7 14 14 NNW 8 13 29.9 1013 10 16.0934 0 0
4:53 am 04:53 Clear 82 27.8 29 -1.7 14 14 NNW 7 11 29.9 1012 10 16.0934 0 0
5:53 am 05:53 Clear 80 26.7 29 -1.7 15 15 SE 3 6 29.91 1013 10 16.0934 0 0
6:53 am 06:53 Sunny 78 25.6 32 0 19 19 SW 8 13 29.95 1014 10 16.0934 0 0
7:53 am 07:53 Sunny 83 28.3 32 0 16 16 WNW 3 6 29.96 1015 10 16.0934 0 0
8:53 am 08:53 Sunny 86 30 31 -0.6 14 14 WNW 6 9 29.98 1015 10 16.0934 0 0
9:53 am 09:53 Sunny 89 31.7 34 1.1 14 14 Calm 29.97 1015 10 16.0934 0 0
10:53 am 10:53 Sunny 93 33.9 34 1.1 12 12 VRB 3 6 29.97 1015 10 16.0934 0 0
11:53 am 11:53 Sunny 96 35.6 31 -0.6 10 10 SSW 3 6 29.96 1014 10 16.0934 0 0
12:53 pm 12:53 Sunny 99 37.2 28 -2.2 8 8 ESE 7 11 29.93 1014 10 16.0934 0 0
1:53 pm 13:53 Sunny 101 38.3 27 -2.8 7 7 E 9 15 29.89 1012 10 16.0934 0 0
2:53 pm 14:53 Sunny 103 39.4 27 -2.8 7 7 E 10 17 29.86 1011 10 16.0934 0 0
3:53 pm 15:53 Sunny 103 39.4 27 -2.8 7 7 SSE 13 20 29.84 1011 10 16.0934 0 0
4:53 pm 16:53 Sunny 102 38.9 27 -2.8 7 7 ESE 13 20 29.83 1010 10 16.0934 0 0
5:53 pm 17:53 Sunny 101 38.3 27 -2.8 7 7 E 8 13 29.82 1010 10 16.0934 0 0
6:53 pm 18:53 Clear 97 36.1 27 -2.8 8 8 E 9 15 29.83 1010 10 16.0934 0 0
7:53 pm 19:53 Clear 96 35.6 29 -1.7 9 9 S 6 9 29.83 1010 10 16.0934 0 0
8:53 pm 20:53 Clear 92 33.3 31 -0.6 11 11 S 6 9 29.86 1011 10 16.0934 0 0
9:53 pm 21:53 Clear 91 32.8 30 -1.1 11 11 SW 5 7 29.87 1011 10 16.0934 0 0
10:53 pm 22:53 Clear 86 30 31 -0.6 14 14 NNW 5 7 29.87 1012 10 16.0934 0 0
11:53 pm 23:53 Clear 84 28.9 32 0 15 15 W 5 7 29.87 1012 10 16.0934 0 0

Powered by AerisWeather